Weather History for Olathe, KS

Change the Weather History Date:

Tuesday, June 11, 2013

  Actual Average Record
Temperature  
Mean Temperature 81 °F 72 °F  
Max Temperature 92 °F 82 °F 101 °F (1953)
Min Temperature 69 °F 63 °F 49 °F (1955)
Degree Days  
Heating Degree Days 0 0  
Month to date heating degree days 14 6  
Since 1 June heating degree days 14 6  
Since 1 July heating degree days 5099 4932  
Cooling Degree Days 16 8  
Month to date cooling degree days 35 73  
Year to date cooling degree days 136 177  
Since 1 June cooling degree days 35 73  
Growing Degree Days 30 (Base 50)    
Moisture  
Dew Point 65 °F    
Average Humidity 63    
Maximum Humidity 90    
Minimum Humidity 36    
Precipitation  
Precipitation 0.02 in 0.20 in 2.22 in (1964)
Month to date precipitation 1.45 2.32  
Year to date precipitation 19.38 17.06  
Sea Level Pressure  
Sea Level Pressure 29.84 in    
Wind  
Wind Speed 11 mph (SSW)    
Max Wind Speed 22 mph    
Max Gust Speed 32 mph    
Visibility 10 miles    
Events Rain , Thunderstorm    
T = Trace of Precipitation, MM = Missing Value Source: NWS Daily Summary

Daily Weather History Graph

Daily Weather History Graph

Search for Another Location

Airport:

Trip Planner

Search our weather history database for the weather conditions in past years. The results will help you decide how hot, cold, wet, or windy it might be!

Date:

Astronomy

Jun. 11, 2013 Rise Set
Actual Time 5:53 AM CDT 8:44 PM CDT
Civil Twilight 5:21 AM CDT 9:16 PM CDT
Nautical Twilight 4:41 AM CDT 9:56 PM CDT
Astronomical Twilight 3:55 AM CDT 10:42 PM CDT
Moon 8:36 AM CDT (6/11) 10:49 PM CDT (6/11)
Length of Visible Light 15h 54m
Length of Day
14h 51m
Waxing Crescent, 8% of the Moon is Illuminated
Jun 11
Waxing Crescent
Jun 16
First Quarter
Jun 23
Full
Jun 29
Last Quarter
Jul 8
New

Hourly Weather History & Observations

Time (CDT) Temp. Heat Index Dew Point Humidity Pressure Visibility Wind Dir Wind Speed Gust Speed Precip Events Conditions
12:53 AM 73.0 °F - 63.0 °F 71% 29.83 in 10.0 mi SSE 8.1 mph - N/A   Clear
1:53 AM 71.1 °F - 63.0 °F 75% 29.82 in 10.0 mi SSE 6.9 mph - N/A   Clear
2:53 AM 70.0 °F - 64.0 °F 81% 29.81 in 10.0 mi SSE 5.8 mph - N/A   Clear
3:53 AM 69.1 °F - 64.9 °F 87% 29.81 in 10.0 mi South 6.9 mph - N/A   Clear
4:53 AM 71.1 °F - 66.0 °F 84% 29.81 in 10.0 mi South 8.1 mph - N/A   Clear
5:53 AM 73.0 °F - 66.9 °F 81% 29.84 in 10.0 mi South 4.6 mph - N/A   Clear
6:11 AM 73.4 °F - 66.2 °F 78% 29.90 in 10.0 mi West 3.5 mph - N/A Thunderstorm Clear
6:26 AM 71.6 °F - 66.2 °F 83% 29.90 in 5.0 mi SSW 3.5 mph - 0.01 in Rain Light Rain
6:53 AM 71.1 °F - 68.0 °F 90% 29.87 in 10.0 mi South 5.8 mph - 0.01 in   Scattered Clouds
7:53 AM 73.0 °F - 68.0 °F 84% 29.87 in 10.0 mi SSW 8.1 mph - N/A   Clear
8:53 AM 77.0 °F - 66.9 °F 71% 29.85 in 10.0 mi SSW 13.8 mph 23.0 mph 0.01 in   Clear
9:53 AM 78.1 °F - 66.9 °F 68% 29.85 in 10.0 mi SSW 16.1 mph 20.7 mph N/A   Clear
10:53 AM 81.0 °F 82.7 °F 64.9 °F 58% 29.87 in 10.0 mi SSW 10.4 mph 18.4 mph N/A   Clear
11:53 AM 82.9 °F 85.0 °F 66.0 °F 56% 29.86 in 10.0 mi SSW 12.7 mph - N/A   Clear
12:53 PM 89.1 °F 89.0 °F 61.0 °F 39% 29.84 in 10.0 mi SW 16.1 mph 26.5 mph N/A   Clear
1:53 PM 91.0 °F 91.5 °F 62.1 °F 38% 29.85 in 10.0 mi SW 10.4 mph 26.5 mph N/A   Clear
2:53 PM 91.0 °F 90.9 °F 61.0 °F 36% 29.85 in 10.0 mi SSW 17.3 mph 28.8 mph N/A   Clear
3:53 PM 90.0 °F 91.3 °F 64.0 °F 42% 29.85 in 10.0 mi SSW 15.0 mph 19.6 mph N/A   Clear
4:53 PM 90.0 °F 90.6 °F 63.0 °F 40% 29.83 in 10.0 mi SSW 12.7 mph - N/A   Clear
5:53 PM 89.1 °F 91.0 °F 64.9 °F 45% 29.81 in 10.0 mi South 12.7 mph 18.4 mph N/A   Clear
6:53 PM 87.1 °F 88.9 °F 64.9 °F 48% 29.81 in 10.0 mi South 9.2 mph - N/A   Clear
7:53 PM 84.0 °F 86.3 °F 66.0 °F 55% 29.80 in 10.0 mi South 10.4 mph - N/A   Clear
8:53 PM 82.0 °F 84.1 °F 66.0 °F 58% 29.78 in 10.0 mi South 11.5 mph 18.4 mph N/A   Clear
9:53 PM 81.0 °F 83.3 °F 66.9 °F 62% 29.79 in 10.0 mi South 12.7 mph - N/A   Clear
10:53 PM 80.1 °F 82.9 °F 69.1 °F 69% 29.81 in 10.0 mi South 10.4 mph - N/A   Clear
11:53 PM 79.0 °F - 69.1 °F 72% 29.81 in 10.0 mi South 12.7 mph - N/A   Clear